La Paz, Mexico

11:40 AM MDT on April 19, 2018 (GMT -0600)
Gen Manuel Marquez De Leon

Weather History for MMLP - May, 2013

Change the Weather History Date:

Sunday, May 19, 2013

  Actual Average Record
Temperature  
Mean Temperature 83 °F -  
Max Temperature 101 °F 93 °F 106 °F (2014)
Min Temperature 65 °F 63 °F 57 °F (2007)
Cooling Degree Days 18    
Growing Degree Days 33 (Base 50)    
Moisture  
Dew Point 42 °F    
Average Humidity 32    
Maximum Humidity 72    
Minimum Humidity 4    
Precipitation  
Precipitation 0.00 in - - ()
Sea Level Pressure  
Sea Level Pressure 29.89 in    
Wind  
Wind Speed 8 mph ()    
Max Wind Speed 18 mph    
Max Gust Speed -    
Visibility 10.6 miles    
Events      
Averages and records for this station are not official NWS values.
T = Trace of Precipitation, MM = Missing Value Source: Averaged Metar Reports

Daily Weather History Graph

Daily Weather History Graph

Search for Another Location

Airport or City:

Astronomy

May. 19, 2013 Rise Set
Actual Time 6:36 AM MDT 7:59 PM MDT
Civil Twilight 6:12 AM MDT 8:24 PM MDT
Nautical Twilight 5:42 AM MDT 8:53 PM MDT
Astronomical Twilight 5:12 AM MDT 9:24 PM MDT
Moon 2:42 PM MDT 2:23 AM MDT
Length of Visible Light 14h 11m
Length of Day
13h 22m
Waxing Gibbous, 66% of the Moon is Illuminated
May 19
Waxing Gibbous
May 24
Full
May 31
Last Quarter
Jun 8
New
Jun 16
First Quarter

Hourly Weather History & Observations

Time (MDT) Temp. Dew Point Humidity Pressure Visibility Wind Dir Wind Speed Gust Speed Precip Events Conditions
12:00 AM 76 °F 50 °F 29% 29.95 in 2 mi South 8.9 mph - -  
2:50 AM 70 °F 54 °F 47% 29.90 in 2 mi South 6.7 mph - -  
5:40 AM 67 °F 53 °F 52% 29.91 in 2 mi South 6.7 mph - -  
5:44 AM 60.8 °F 51.8 °F 72% 29.95 in 10.0 mi SSE 8.1 mph - N/A   Scattered Clouds
6:43 AM 60.8 °F 51.8 °F 72% 29.91 in 10.0 mi SSE 10.4 mph - N/A   Mostly Cloudy
7:40 AM 62.6 °F 51.8 °F 68% 29.92 in 10.0 mi SSE 10.4 mph - N/A   Mostly Cloudy
8:40 AM 75 °F 52 °F 34% 29.95 in 16 mi South 8.9 mph - -   Clear
8:40 AM 68.0 °F 51.8 °F 56% 29.98 in 10.0 mi South 9.2 mph - N/A   Mostly Cloudy
9:40 AM 77.0 °F 44.6 °F 32% 29.93 in 10.0 mi South 5.8 mph - N/A   Mostly Cloudy
10:45 AM 84.2 °F 28.4 °F 13% 29.92 in 12.0 mi Calm Calm - N/A   Mostly Cloudy
11:40 AM 89.6 °F 23.0 °F 9% 29.96 in 12.0 mi Calm Calm - N/A   Mostly Cloudy
11:50 AM 92 °F 36 °F 7% 29.91 in 19 mi West 4.5 mph - -   Clear
12:40 PM 93.2 °F 17.6 °F 6% 29.89 in 12.0 mi NE 9.2 mph - N/A   Mostly Cloudy
1:49 PM 93.2 °F 19.4 °F 7% 29.87 in 12.0 mi North 9.2 mph - N/A   Mostly Cloudy
2:45 PM 93.2 °F 17.6 °F 6% 29.90 in 12.0 mi North 11.5 mph - N/A   Mostly Cloudy
2:50 PM 98 °F 31 °F 4% 29.85 in 19 mi NNW 8.9 mph - -   Clear
3:41 PM 95.0 °F 12.2 °F 5% 29.83 in 12.0 mi North 11.5 mph - N/A   Mostly Cloudy
4:47 PM 96.8 °F 17.6 °F 6% 29.80 in 12.0 mi North 5.8 mph - N/A   Mostly Cloudy
5:40 PM 93.2 °F 42.8 °F 17% 29.85 in 12.0 mi SW 18.4 mph - N/A   Mostly Cloudy
5:50 PM 96 °F 40 °F 8% 29.80 in 19 mi NW 4.5 mph - -   Clear
6:40 PM 89.6 °F 50.0 °F 26% 29.82 in 12.0 mi South 10.4 mph - N/A   Mostly Cloudy
7:41 PM 80.6 °F 51.8 °F 37% 29.84 in 12.0 mi South 17.3 mph - N/A   Mostly Cloudy
8:40 PM 77.0 °F 53.6 °F 44% 29.91 in 12.0 mi South 11.5 mph - N/A   Mostly Cloudy
8:50 PM 81 °F 56 °F 33% 29.85 in 2 mi South 2.2 mph - -  
9:40 PM 73.4 °F 53.6 °F 50% 29.88 in 10.0 mi South 16.1 mph - N/A   Mostly Cloudy
10:40 PM 71.6 °F 55.4 °F 57% 29.91 in 10.0 mi South 12.7 mph - N/A   Scattered Clouds
11:45 PM 72 °F 59 °F 55% 29.87 in 2 mi South 8.9 mph - -   Clear